Location: Santa Teresa Spring
(37.2333°N, 121.7000°W)
Time: 08:18:43
(UTC-08:00)

ISS - Visible Passes

Search period start: 04 December 2016 00:00
Search period end: 14 December 2016 00:00
Orbit: 401 x 410 km, 51.6° (Epoch: 04 December)

Date Brightness Start Highest point End Pass type
(mag) Time Alt. Az. Time Alt. Az. Time Alt. Az.
04 Dec -0.6 18:35:54 10° NW 18:37:11 12° NNW 18:37:22 12° NNW visible
05 Dec -1.0 17:42:45 10° WNW 17:44:58 16° NNW 17:47:10 10° NNE visible
07 Dec -0.6 17:37:14 10° NNW 17:37:54 10° NNW 17:38:33 10° N visible
